| time (UTC) | temp F | wind direction | speed knots | gust knots | rain 1hr in | rain 24hr in | rain mn in | humidity % | barometer mb |
| 20260503184604 | 51 | 46 | 2.6 | 10.4 | 0.00 | 0.04 | 0.00 | 52 | 1002.8 |
| 20260503183025 | 51 | 332 | 1.7 | 10.4 | 0.00 | 0.04 | 0.00 | 54 | 1002.7 |
| 20260503181506 | 50 | 340 | 1.7 | 11.3 | 0.00 | 0.04 | 0.00 | 56 | 1002.7 |
| 20260503180042 | 49 | 308 | 1.7 | 11.3 | 0.00 | 0.04 | 0.00 | 59 | 1002.9 |
| 20260503174519 | 49 | 24 | 0.0 | 9.6 | 0.00 | 0.04 | 0.00 | 60 | 1002.9 |
| 20260503173058 | 49 | 324 | 3.5 | 9.6 | 0.00 | 0.04 | 0.00 | 61 | 1003.0 |
| 20260503171534 | 48 | 9 | 2.6 | 12.2 | 0.00 | 0.04 | 0.00 | 62 | 1002.9 |
| 20260503081541 | 42 | 315 | 0.0 | 0.0 | 0.00 | 0.11 | 0.00 | 93 | 1006.4 |
| 20260503071516 | 42 | 36 | 0.0 | 0.0 | 0.00 | 0.11 | 0.00 | 93 | 1006.6 |
| 20260503054509 | 43 | 51 | 0.0 | 0.0 | 0.00 | 0.11 | 0.00 | 93 | 1007.6 |
| 20260503053044 | 43 | 316 | 0.0 | 0.0 | 0.00 | 0.11 | 0.00 | 93 | 1007.6 |
| 20260503051521 | 43 | 318 | 0.0 | 0.0 | 0.00 | 0.11 | 0.00 | 93 | 1008.2 |
| 20260503050053 | 43 | 315 | 0.0 | 0.0 | 0.00 | 0.11 | 0.00 | 93 | 1008.3 |
| 20260503044549 | 44 | 327 | 0.0 | 0.0 | 0.00 | 0.11 | 0.00 | 93 | 1008.4 |
| 20260503043030 | 44 | 327 | 0.0 | 0.0 | 0.00 | 0.11 | 0.00 | 93 | 1008.5 |
| 20260503041556 | 44 | 301 | 0.0 | 0.0 | 0.00 | 0.11 | 0.00 | 93 | 1008.5 |
| 20260503040032 | 44 | 53 | 0.0 | 0.0 | 0.00 | 0.11 | 0.11 | 93 | 1008.5 |
| 20260503034507 | 44 | 77 | 0.0 | 0.0 | 0.00 | 0.11 | 0.11 | 93 | 1008.4 |
| 20260503033043 | 44 | 96 | 0.0 | 0.0 | 0.01 | 0.11 | 0.11 | 92 | 1008.8 |
| 20260503031533 | 44 | 96 | 0.0 | 3.5 | 0.01 | 0.11 | 0.11 | 92 | 1008.9 |
| 20260503030007 | 44 | 331 | 0.0 | 1.7 | 0.01 | 0.11 | 0.11 | 92 | 1009.2 |
| 20260503024544 | 45 | 5 | 0.0 | 0.9 | 0.01 | 0.11 | 0.11 | 92 | 1009.2 |
| 20260503023020 | 45 | 90 | 0.0 | 2.6 | 0.00 | 0.10 | 0.10 | 92 | 1009.5 |
| 20260503021601 | 45 | 26 | 0.0 | 1.7 | 0.00 | 0.10 | 0.10 | 92 | 1009.4 |
| 20260503020033 | 45 | 47 | 0.0 | 2.6 | 0.00 | 0.10 | 0.10 | 92 | 1009.4 |
| 20260503014517 | 45 | 5 | 0.0 | 1.7 | 0.00 | 0.10 | 0.10 | 92 | 1009.6 |
| 20260503013100 | 45 | 36 | 0.0 | 0.9 | 0.00 | 0.10 | 0.10 | 91 | 1009.7 |
| 20260503011551 | 45 | 10 | 0.0 | 0.0 | 0.02 | 0.10 | 0.10 | 91 | 1009.6 |
| 20260503010037 | 46 | 21 | 0.0 | 0.0 | 0.03 | 0.10 | 0.10 | 90 | 1009.7 |
| 20260503004513 | 46 | 78 | 0.0 | 1.7 | 0.03 | 0.10 | 0.10 | 89 | 1009.6 |
| 20260503003049 | 46 | 107 | 0.0 | 0.0 | 0.03 | 0.10 | 0.10 | 89 | 1009.8 |
| 20260503001523 | 46 | 107 | 0.0 | 0.0 | 0.01 | 0.08 | 0.08 | 87 | 1009.6 |
| 20260503000014 | 47 | 107 | 0.0 | 0.9 | 0.00 | 0.07 | 0.07 | 86 | 1009.4 |
| 20260502234600 | 47 | 105 | 0.0 | 1.7 | 0.00 | 0.07 | 0.07 | 85 | 1009.2 |
| 20260502233037 | 47 | 90 | 0.0 | 1.7 | 0.00 | 0.07 | 0.07 | 85 | 1009.2 |
| 20260502231533 | 48 | 86 | 0.0 | 2.6 | 0.00 | 0.07 | 0.07 | 85 | 1009.3 |
| 20260502230006 | 48 | 131 | 0.0 | 1.7 | 0.00 | 0.07 | 0.07 | 86 | 1009.2 |
| 20260502224547 | 48 | 311 | 0.0 | 0.9 | 0.00 | 0.07 | 0.07 | 87 | 1009.2 |
| 20260502223028 | 48 | 9 | 0.0 | 0.0 | 0.00 | 0.07 | 0.07 | 86 | 1009.1 |
| 20260502221623 | 48 | 343 | 0.0 | 1.7 | 0.00 | 0.07 | 0.07 | 85 | 1009.2 |
| 20260502220056 | 49 | 340 | 0.0 | 1.7 | 0.00 | 0.07 | 0.07 | 83 | 1009.3 |
| 20260502214523 | 49 | 120 | 0.0 | 2.6 | 0.00 | 0.07 | 0.07 | 81 | 1009.3 |
| 20260502213101 | 49 | 296 | 0.0 | 0.9 | 0.00 | 0.07 | 0.07 | 80 | 1009.3 |
| 20260502211539 | 49 | 301 | 0.0 | 0.9 | 0.00 | 0.07 | 0.07 | 79 | 1009.6 |
| 20260502210014 | 49 | 259 | 0.0 | 0.0 | 0.00 | 0.07 | 0.07 | 79 | 1009.6 |
| 20260502204552 | 49 | 167 | 0.0 | 0.9 | 0.00 | 0.07 | 0.07 | 79 | 1009.2 |
| 20260502203030 | 49 | 161 | 0.0 | 1.7 | 0.00 | 0.07 | 0.07 | 78 | 1009.2 |
| 20260502201517 | 49 | 168 | 0.0 | 1.7 | 0.00 | 0.07 | 0.07 | 79 | 1009.3 |
| 20260502200121 | 49 | 169 | 0.0 | 2.6 | 0.00 | 0.07 | 0.07 | 78 | 1009.4 |
| 20260502194538 | 50 | 180 | 0.0 | 3.5 | 0.00 | 0.07 | 0.07 | 77 | 1009.6 |
| 20260502193009 | 50 | 199 | 0.0 | 2.6 | 0.00 | 0.07 | 0.07 | 80 | 1009.5 |
| 20260502191556 | 50 | 233 | 0.9 | 4.3 | 0.00 | 0.07 | 0.07 | 79 | 1009.7 |
| 20260502190031 | 50 | 177 | 0.0 | 3.5 | 0.00 | 0.07 | 0.07 | 79 | 1009.8 |